Location: Smithers
(54.7670°N, 127.1670°W)
Time: 15:24:03
(UTC-08:00)

Daily predictions for brighter satellites

Satellite Brightness Start Highest point End
(mag) Time Altitude Azimuth Time Altitude Azimuth Time Altitude Azimuth
COSMO-SKYMED 1 2.8 18:25:54 10° NNE 18:30:10 51° E 18:34:24 10° S
Cosmos 2219 4.0 18:25:23 10° SW 18:30:55 55° NW 18:36:31 10° NNE
FengYun 1-2 T 4.4 18:26:15 10° SE 18:31:34 54° ENE 18:36:55 10° N
HJ-1C 4.5 18:30:08 10° ESE 18:33:02 26° ENE 18:35:56 10° N
H-2A R/B 2.9 18:30:31 10° SE 18:34:19 51° ENE 18:38:06 10° N
Envisat 3.8 18:31:27 10° ESE 18:35:53 31° ENE 18:40:20 10° N
Aureole 3 3.6 18:32:47 10° S 18:37:38 58° E 18:41:28 10° NNE
Cosmos 2297 Rocket 2.2 18:32:19 10° SSW 18:37:59 81° ESE 18:43:42 10° NE
NOSS 3-2 (C) 3.6 18:31:54 10° SW 18:38:01 75° SE 18:44:56 10° NE
Cosmos 1939 Rocket 4.5 18:36:45 10° E 18:39:28 17° ENE 18:42:10 10° NNE
Cosmos 921 Rocket 3.2 18:35:43 10° NNW 18:40:17 84° WSW 18:44:47 10° SSE
CZ-4C R/B 2.9 18:34:18 10° NW 18:40:58 70° NE 18:48:38 10° ESE
Cosmos 1812 3.5 18:37:09 10° NNW 18:41:00 59° W 18:44:48 10° S
Cosmos 2084 Rocket 3.6 18:37:07 10° WSW 18:41:24 74° NW 18:45:30 10° NE
Cosmos 1110 Rocket 4.1 18:38:00 10° NNW 18:43:17 65° ENE 18:48:34 10° SE
USA 186 3.5 18:43:06 10° ESE 18:45:22 17° ENE 18:47:37 10° NNE
Cosmos 1603 3.7 18:39:58 10° NNW 18:45:41 84° ENE 18:51:20 10° SE
Sich 1 Rocket 4.0 18:42:03 10° SSE 18:46:14 40° E 18:50:24 10° NNE
Cosmos 1674 Rocket 4.4 18:42:45 10° NNW 18:47:02 56° W 18:51:15 10° S
CENTAUR R/B 2.9 18:42:35 10° SSW 18:48:32 49° SE 18:55:20 10° NE
Meteor 1-4 Rocket 4.0 18:50:07 10° SE 18:52:36 18° E 18:55:08 10° NE
SJ-6B 3.2 18:49:47 10° SE 18:53:25 41° ENE 18:57:08 10° N
Okean 2 Rocket 4.0 18:52:05 10° SE 18:55:46 27° E 18:59:28 10° NNE
CZ-2C R/B 3.8 18:51:20 10° NNE 18:55:50 83° WNW 19:00:15 10° SSW
Iridium 4 Rocket 3.2 18:50:55 10° N 18:55:51 71° E 19:00:18 10° S
Cosmos 1269 Rocket 4.5 18:51:25 10° S 18:56:18 40° ESE 19:01:13 10° NE
USA 267 3.3 18:51:14 10° E 18:57:47 77° N 19:04:19 10° WNW
Cosmos 1464 Rocket 4.1 18:53:08 10° NNW 18:59:17 80° W 19:05:25 10° S
Tsikada Rocket 4.4 18:53:30 10° SSE 18:59:29 43° E 19:05:28 10° NNE
CZ-2D R/B 3.7 18:57:18 10° SE 19:00:59 41° ENE 19:04:41 10° N
USA 32 4.1 18:56:23 10° SSE 19:01:29 55° E 19:06:35 10° NNE
COSMOS 2455 4.0 18:57:22 10° SSE 19:01:42 21° ESE 19:06:04 10° ENE
Okean 1 3.4 18:58:15 10° NNW 19:02:16 81° W 19:06:15 10° S
Cosmos 2263 Rocket 3.5 18:59:04 10° SE 19:02:30 17° E 19:05:58 10° ENE
Cosmos 158 Rocket 3.8 18:59:33 10° SSW 19:04:25 75° ESE 19:09:20 10° NNE
ALOS 3.6 19:00:30 10° S 19:04:58 44° W 19:09:29 10° NNW
Meteor 1-20 Rocket 4.3 18:59:19 10° S 19:05:03 74° E 19:10:55 10° NNE
Cosmos 1908 Rocket 3.5 19:01:03 10° S 19:05:31 75° E 19:09:59 10° NNE
Meteor 1-13 Rocket 4.2 19:00:18 10° N 19:05:50 63° ENE 19:11:18 10° SSE
Cosmos 1602 4.2 19:02:43 10° SSE 19:06:19 37° E 19:09:55 10° NNE
Cosmos 1733 Rocket 4.0 19:03:47 10° SSW 19:08:01 52° WNW 19:12:17 10° N
Cosmos 2082 4.0 19:05:04 10° SW 19:10:41 73° NW 19:16:24 10° NNE
ATLAS CENTAUR R/B 1.4 19:06:38 10° NW 19:10:43 86° SW 19:15:04 10° SE
Cosmos 1331 Rocket 4.0 19:06:50 10° NNW 19:12:12 89° ENE 19:17:31 10° SSE
YAOGAN 6 3.6 19:11:57 16° ESE 19:13:55 26° ENE 19:16:57 10° N
Landsat 4 3.6 19:10:38 10° NNE 19:14:24 78° ESE 19:18:10 10° SSW
EO 1 Del DPAF 3.2 19:11:17 10° NNE 19:15:07 67° ESE 19:18:56 10° S
SKYMED 2 4.1 19:13:57 10° N 19:18:16 62° WNW 19:22:33 10° SSW
Cosmos 1633 2.9 19:15:19 10° SSW 19:18:52 66° WNW 19:22:29 10° N
BREEZE-M DEB (TANK) 4.2 19:17:55 10° WSW 19:19:17 14° SSW 19:20:46 10° SSE
MTI 4.1 19:18:33 10° N 19:21:44 66° WNW 19:24:55 10° SSW
ATLAS 3B R/B 3.3 19:15:04 10° WSW 19:22:00 54° NNW 19:28:40 10° NE
Cosmos 2279 Rocket 4.5 19:17:56 10° N 19:23:46 39° ENE 19:29:34 10° SE
Cosmos 1975 Rocket 3.4 19:20:25 10° NNW 19:24:51 72° W 19:29:18 10° S
Spot 2 Rocket 3.9 19:20:39 11° SE 19:25:17 41° ENE 19:30:04 10° N
ARGOS Delta rocket 4.2 19:22:02 10° NNE 19:26:38 40° E 19:30:58 10° SSE
H-2A R/B 3.6 19:27:53 17° ENE 19:29:24 19° NE 19:33:10 10° N
Meteor 2-4 Rocket 3.7 19:24:19 10° NNW 19:30:12 79° ENE 19:35:52 10° SSE
Cosmos 1048 Rocket 4.0 19:26:11 10° SSW 19:31:30 84° ESE 19:36:46 10° NNE
NOSS 3-2 (A) 4.0 19:26:39 10° WSW 19:32:53 61° NNW 19:39:57 10° NE
Cosmos 1437 Rocket 2.8 19:29:10 10° S 19:33:17 84° E 19:37:26 10° NNE
Cosmos 2227 4.3 19:29:01 10° S 19:34:33 54° ESE 19:40:06 10° NE
Cosmos 1184 Rocket 2.7 19:31:17 10° NNW 19:34:36 88° WSW 19:37:53 10° SSE
Resurs 1-3 3.7 19:31:42 11° SE 19:35:47 53° ENE 19:40:06 10° N
Cosmos 2082 Rocket 4.0 19:35:20 10° NNW 19:39:09 18° NNE 19:41:59 13° NE
Cosmos 1340 Rocket 4.0 19:36:41 10° N 19:40:02 24° ENE 19:40:03 24° ENE
Cosmos 1536 3.3 19:37:55 10° SSE 19:41:40 37° E 19:45:27 10° NNE
Cosmos 1515 4.0 19:40:30 10° N 19:44:09 43° ENE 19:45:13 34° ESE
Cosmos 2251 Rocket 4.1 19:39:46 10° SSE 19:44:23 33° ESE 19:49:02 10° NE
Cosmos 1302 Rocket 4.0 19:39:22 10° NNW 19:44:37 86° WSW 19:49:49 10° SSE
Cosmos 1300 Rocket 4.4 19:45:23 29° ENE 19:45:23 29° ENE 19:48:45 10° NNE
SeaSat 1 2.5 19:41:41 10° SSE 19:46:38 79° WSW 19:51:36 10° NW
Cosmos 1634 Rocket 3.9 19:40:48 10° N 19:47:01 78° ENE 19:53:12 10° SSE
Cosmos 1943 3.6 19:43:18 10° NW 19:48:54 64° WSW 19:54:30 10° SSE
NOAA 11 4.5 19:47:14 23° SE 19:50:16 46° ENE 19:55:27 10° N
Okean 2 3.9 19:47:01 10° N 19:50:56 38° ENE 19:51:29 36° E
ERS-2 3.9 19:48:15 10° SSW 19:51:39 35° W 19:55:05 10° NNW
USA 238 4.5 19:46:28 10° W 19:53:11 48° NNW 19:59:07 14° NE
Cosmos 1536 Rocket 3.4 19:50:59 10° N 19:55:27 82° E 19:59:36 11° SSE
Cosmos 1816 Rocket 4.5 19:50:10 10° S 19:56:32 87° ESE 20:02:55 10° NNE
Resurs 01 Rocket 1.5 19:53:51 13° SSE 19:57:43 81° ENE 20:02:11 10° NNW
Alouette 2 Rocket 3.3 19:55:12 10° S 19:58:44 60° E 20:03:09 10° NNE
Cosmos 2142 Rocket 4.4 19:52:38 10° N 19:59:03 82° ENE 20:05:21 10° SSE
Okean 1-7 Rocket 4.3 19:56:27 10° N 20:00:14 32° ENE 20:00:14 32° ENE
Cosmos 1025 Rocket 3.3 19:56:36 10° N 20:00:49 44° ENE 20:01:23 42° E
COSMOS 2406 3.7 19:55:38 10° NNW 20:01:02 42° NE 20:02:51 32° E
Meteor 1-11 Rocket 3.6 19:56:13 10° S 20:01:50 74° E 20:07:39 10° NNE
USA 215 4.1 20:02:13 27° ESE 20:02:50 27° SE 20:08:16 10° S
Cosmos 1782 Rocket 4.3 19:59:33 10° SSW 20:03:54 54° WNW 20:08:14 10° N
Cosmos 2227 Rocket 3.8 20:04:21 10° WSW 20:09:25 32° NW 20:14:31 10° NNE
Gbstr 26 Del rocket 4.0 20:06:35 10° SSW 20:09:07 27° S 20:09:07 27° S
Cosmos 1939 Rocket 3.0 20:11:20 22° S 20:13:56 79° WSW 20:18:02 10° NNW
Envisat 3.7 20:09:45 10° S 20:14:43 54° W 20:19:44 10° NNW
USA 186 2.6 20:13:59 23° SSW 20:15:49 51° W 20:19:05 10° NNW
SL-8 R/B 4.3 20:12:26 10° WSW 20:16:53 39° S 20:17:38 37° SSE
MetOp-A 4.4 20:18:34 43° E 20:19:24 46° ENE 20:24:32 10° N
SPOT 5 4.1 20:20:51 28° NE 20:20:51 28° NE 20:25:07 10° N
SL-24 DEB 4.1 20:16:26 10° N 20:21:04 72° E 20:23:28 28° S
Cosmos 494 Rocket 3.9 20:16:06 10° SSW 20:21:19 87° ESE 20:26:31 10° NNE
Cosmos 2297 Rocket 3.9 20:17:39 10° W 20:22:39 31° NW 20:27:41 10° NNE
Meteor 1-4 Rocket 3.5 20:23:56 10° SSW 20:27:23 47° WNW 20:30:57 10° N
Meteor 2-20 4.5 20:24:38 20° SSE 20:28:44 55° E 20:34:44 10° NNE
NOSS 3-2 (C) 4.3 20:23:12 10° W 20:29:25 50° NNW 20:34:41 18° NE
CZ-4C R/B 3.6 20:22:55 10° NW 20:29:33 48° SW 20:35:53 15° SSE
Thor Agena Rocket 3.6 20:27:00 10° NNE 20:32:08 74° WNW 20:37:09 10° SSW
Okean 2 Rocket 4.2 20:29:25 10° SW 20:33:39 45° WNW 20:37:56 10° N
Cosmos 1833 Rocket 3.9 20:28:58 10° NNW 20:33:43 26° NNE 20:34:26 26° NE
CENTAUR R/B 3.0 20:32:39 10° WSW 20:39:06 65° NNW 20:44:55 17° NE
Helios 1A 4.3 20:42:29 29° NNE 20:42:29 29° NNE 20:44:55 10° N
USA 267 3.3 20:38:35 42° SE 20:40:55 72° SSW 20:47:29 10° WNW
Cosmos 2180 Rocket 4.4 20:35:01 10° NNW 20:41:16 87° W 20:44:54 27° S
Cosmos 2151 Rocket 4.0 20:39:02 10° SSW 20:43:28 62° WNW 20:47:53 10° N
Cosmos 2263 Rocket 2.0 20:39:58 10° SSW 20:45:33 78° ESE 20:48:37 28° NE
COSMOS 2455 2.7 20:40:48 10° SW 20:46:51 82° SE 20:49:51 32° NE
YAOGAN 6 4.1 20:46:21 29° SW 20:47:22 34° W 20:50:42 10° NNW
ATLAS CENTAUR R/B 3.9 20:46:26 10° WNW 20:49:14 17° WSW 20:51:44 11° SSW
Cosmos 1992 Rocket 4.1 20:45:18 10° NNW 20:50:33 71° WSW 20:51:38 54° S
SL-08 RB Rocket 4.4 20:52:00 44° NNE 20:52:00 44° NNE 20:55:30 10° N
SPOT 1/Viking Rocket 4.4 20:54:33 36° NNE 20:54:33 36° NNE 20:58:17 10° N
ERS-1 Rocket 3.1 20:55:41 60° NNE 20:55:41 60° NNE 21:00:08 10° NNW
ARGOS 3.0 20:55:04 75° E 20:55:18 77° ENE 21:00:45 10° NNW
H-2A R/B 2.2 21:08:31 70° NNE 21:08:31 70° NNE 21:13:31 10° NNW
ATLAS 3B R/B 3.6 21:07:30 10° WNW 21:13:58 39° N 21:16:17 31° NE
Cosmos 1340 Rocket 4.3 21:12:53 10° NNW 21:15:42 35° WNW 21:15:42 35° WNW
MetOp-B 4.1 21:17:03 78° WNW 21:17:03 78° WNW 21:22:15 10° NNW
USA 245 4.4 21:21:41 86° ESE 21:21:47 87° ENE 21:28:20 10° NNW
ASTEX 1 4.5 21:16:54 10° N 21:19:56 37° N 21:19:56 37° N
Terra 3.6 21:25:46 23° N 21:25:46 23° N 21:27:46 10° N
Cosmos 2082 Rocket 3.1 21:19:29 10° NNW 21:23:50 37° NNE 21:23:50 37° NNE
Cosmos 2251 Rocket 4.2 21:21:22 10° SW 21:26:29 53° NW 21:31:39 10° NNE
Meteor 1-21 4.4 21:24:29 10° NNW 21:29:32 67° N 21:29:32 67° N
Resurs 01 Rocket 4.3 21:32:00 10° SW 21:34:48 16° W 21:37:37 10° NW
USA 238 DEB 4.5 21:38:45 10° WNW 21:45:26 44° N 21:46:28 41° NNE
USA 238 4.5 21:38:51 10° WNW 21:45:31 44° N 21:46:33 41° NNE
COSMOS 2406 3.9 21:40:01 10° NW 21:44:57 50° W 21:44:57 50° W
USA 215 4.2 21:49:36 35° SW 21:49:36 35° SW 21:53:12 10° SW
Nadezhda 4 Rocket 4.2 21:53:27 67° NW 21:53:27 67° NW 21:59:18 10° N
SPOT 5 4.2 22:00:05 41° NW 22:00:05 41° NW 22:03:38 10° NNW
Cosmos 1833 Rocket 4.0 22:12:49 10° NNW 22:16:08 36° NNW 22:16:08 36° NNW
Cosmos 2263 Rocket 3.8 22:25:06 10° W 22:30:04 31° NW 22:30:38 31° NNW
CENTAUR R/B 3.7 22:24:26 10° WNW 22:30:59 44° N 22:32:07 41° NNE
COSMOS 2455 4.1 22:27:48 10° W 22:33:06 37° NW 22:33:06 37° NW
H-2A R/B 4.2 22:49:08 22° WNW 22:49:08 22° WNW 22:52:20 10° NW
ATLAS 3B R/B 3.8 22:59:10 10° NW 23:03:33 38° NNW 23:03:33 38° NNW
Cosmos 2082 Rocket 4.3 23:03:39 10° NW 23:05:41 23° NW 23:05:41 23° NW
